{"data":{"norad_id":62147,"epoch":"2026-09-21T00:59:52.286496Z","epoch_age_seconds":134681,"freshness":"FRESH","line1":"1 62147U 24224J   26264.04157739  .00008863  00000+0  33115-3 0  9990","line2":"2 62147  43.0037 135.1072 0001042 277.7764  82.2969 15.27585896102246","mean_motion":15.27585896,"eccentricity":0.0001042,"inclination_deg":43.0037,"raan_deg":135.1072,"arg_perigee_deg":277.7764,"mean_anomaly_deg":82.2969,"bstar":0.00033115,"rev_number":10224,"period_min":94.266384873718,"perigee_km":482.31650759977,"apogee_km":483.74637510295,"semimajor_km":6861.1684413514,"source":"CELESTRAK","updated_at":"2026-09-22T09:00:49.530684Z"}}